When you browse on this site, cookies collect data to enhance your experience and personalize the content and advertising you see.
Visit our Privacy Policy to learn more. By continuing to use the site, you agree to this use of cookies and data.
  • In Hungary
  • List of Countries
  • For 7 days
  • Water Temperature
  • Weather Map
  • News
  • Weather Widgets
  • user-avatar
    Login

    Hourly Weather Ibagué

    Today, 14 November, Thursday

    Time Temperature Precipitation Wind Pressure Humidity
    00:00 +19°C° 0 mm 1 mps 648 mmHg 92%
    01:00 +19°C° 0 mm 1 mps 647 mmHg 91%
    02:00 +19°C° 0.1 mm 1 mps 647 mmHg 91%
    03:00 +19°C° 0.1 mm 1 mps 647 mmHg 90%
    04:00 +19°C° 0.1 mm 1 mps 647 mmHg 90%
    05:00 +17°C° 0 mm 0 mps 648 mmHg 89%
    06:00 +18°C° 0 mm 0 mps 648 mmHg 87%
    07:00 +19°C° 0 mm 0 mps 649 mmHg 86%
    08:00 +20°C° 0.1 mm 0 mps 649 mmHg 83%
    09:00 +23°C° 0.1 mm 1 mps 650 mmHg 80%
    10:00 +25°C° 0.1 mm 2 mps 650 mmHg 77%
    11:00 +25°C° 0.6 mm 1 mps 649 mmHg 81%
    12:00 +24°C° 0.6 mm 1 mps 648 mmHg 85%
    13:00 +24°C° 0.6 mm 1 mps 647 mmHg 88%
    14:00 +24°C° 1 mm 1 mps 647 mmHg 87%
    15:00 +24°C° 1 mm 1 mps 647 mmHg 86%
    16:00 +24°C° 1 mm 1 mps 647 mmHg 85%
    17:00 +23°C° 1.1 mm 1 mps 647 mmHg 87%
    18:00 +22°C° 1.1 mm 1 mps 647 mmHg 89%
    19:00 +21°C° 1.1 mm 1 mps 647 mmHg 92%
    20:00 +20°C° 0.5 mm 1 mps 648 mmHg 90%
    21:00 +20°C° 0.5 mm 1 mps 648 mmHg 89%
    22:00 +20°C° 0.5 mm 1 mps 649 mmHg 88%
    23:00 +20°C° 0.1 mm 1 mps 649 mmHg 88%

    Tomorrow, 15 November, Friday

    Time Temperature Precipitation Wind Pressure Humidity
    00:00 +20°C° 0.1 mm 1 mps 648 mmHg 87%
    01:00 +20°C° 0.1 mm 1 mps 648 mmHg 87%
    02:00 +20°C° 0.3 mm 1 mps 648 mmHg 87%
    03:00 +20°C° 0.3 mm 1 mps 648 mmHg 87%
    04:00 +18°C° 0.3 mm 0 mps 648 mmHg 88%
    05:00 +18°C° 0.2 mm 0 mps 648 mmHg 87%
    06:00 +19°C° 0.2 mm 0 mps 649 mmHg 87%
    07:00 +19°C° 0.2 mm 0 mps 649 mmHg 87%
    08:00 +19°C° 0.3 mm 0 mps 649 mmHg 87%
    09:00 +20°C° 0.3 mm 0 mps 650 mmHg 87%
    10:00 +21°C° 0.3 mm 0 mps 650 mmHg 87%
    11:00 +23°C° 0.5 mm 1 mps 649 mmHg 86%
    12:00 +24°C° 0.5 mm 1 mps 648 mmHg 86%
    13:00 +24°C° 0.5 mm 2 mps 647 mmHg 85%
    14:00 +24°C° 1 mm 1 mps 647 mmHg 87%
    15:00 +24°C° 1 mm 1 mps 647 mmHg 88%
    16:00 +23°C° 1 mm 1 mps 646 mmHg 90%
    17:00 +22°C° 1.3 mm 1 mps 647 mmHg 90%
    18:00 +21°C° 1.3 mm 1 mps 647 mmHg 91%
    19:00 +20°C° 1.3 mm 1 mps 647 mmHg 91%
    20:00 +21°C° 0.3 mm 1 mps 648 mmHg 90%
    21:00 +21°C° 0.3 mm 1 mps 648 mmHg 89%
    22:00 +21°C° 0.3 mm 1 mps 648 mmHg 88%
    23:00 +20°C° 0.4 mm 1 mps 648 mmHg 89%

    Day after tomorrow, 16 November, Saturday

    Time Temperature Precipitation Wind Pressure Humidity
    00:00 +20°C° 0.4 mm 1 mps 648 mmHg 91%
    01:00 +19°C° 0.4 mm 2 mps 647 mmHg 92%
    02:00 +20°C° 0.3 mm 1 mps 647 mmHg 93%
    03:00 +20°C° 0.3 mm 1 mps 647 mmHg 94%
    04:00 +17°C° 0.3 mm 0 mps 647 mmHg 95%
    05:00 +18°C° 0.4 mm 0 mps 647 mmHg 94%
    06:00 +18°C° 0.4 mm 0 mps 647 mmHg 94%
    07:00 +18°C° 0.4 mm 0 mps 648 mmHg 93%
    08:00 +19°C° 0.2 mm 0 mps 648 mmHg 91%
    09:00 +22°C° 0.2 mm 1 mps 649 mmHg 89%
    10:00 +23°C° 0.2 mm 1 mps 649 mmHg 86%
    11:00 +23°C° 0.3 mm 1 mps 648 mmHg 85%
    12:00 +23°C° 0.3 mm 1 mps 647 mmHg 84%
    13:00 +24°C° 0.3 mm 1 mps 647 mmHg 82%
    14:00 +23°C° 1.1 mm 1 mps 646 mmHg 84%
    15:00 +23°C° 1.1 mm 1 mps 646 mmHg 86%
    16:00 +23°C° 1.1 mm 1 mps 645 mmHg 88%
    17:00 +22°C° 0.4 mm 1 mps 646 mmHg 89%
    18:00 +21°C° 0.4 mm 1 mps 646 mmHg 89%
    19:00 +21°C° 0.4 mm 1 mps 646 mmHg 90%
    20:00 +21°C° 0.1 mm 1 mps 647 mmHg 90%
    21:00 +20°C° 0.1 mm 1 mps 647 mmHg 89%
    22:00 +20°C° 0.1 mm 1 mps 647 mmHg 89%
    23:00 +20°C° 0.2 mm 1 mps 647 mmHg 90%

    17 November, Sunday

    Time Temperature Precipitation Wind Pressure Humidity
    00:00 +20°C° 0.2 mm 1 mps 647 mmHg 90%
    01:00 +20°C° 0.2 mm 1 mps 646 mmHg 91%
    02:00 +19°C° 0.4 mm 1 mps 646 mmHg 91%
    03:00 +19°C° 0.4 mm 1 mps 646 mmHg 92%
    04:00 +19°C° 0.4 mm 1 mps 646 mmHg 93%
    05:00 +20°C° 0.3 mm 1 mps 646 mmHg 92%
    06:00 +18°C° 0.3 mm 0 mps 647 mmHg 92%
    07:00 +18°C° 0.3 mm 0 mps 647 mmHg 92%
    08:00 +21°C° 0.4 mm 1 mps 648 mmHg 91%
    09:00 +21°C° 0.4 mm 1 mps 648 mmHg 91%
    10:00 +22°C° 0.4 mm 1 mps 648 mmHg 90%
    11:00 +23°C° 0.5 mm 1 mps 647 mmHg 89%
    12:00 +23°C° 0.5 mm 1 mps 647 mmHg 89%
    13:00 +24°C° 0.5 mm 1 mps 646 mmHg 88%
    14:00 +23°C° 0.6 mm 1 mps 646 mmHg 88%
    15:00 +23°C° 0.6 mm 1 mps 645 mmHg 88%
    16:00 +23°C° 0.6 mm 1 mps 645 mmHg 88%
    17:00 +22°C° 0.8 mm 1 mps 645 mmHg 89%
    18:00 +21°C° 0.8 mm 1 mps 646 mmHg 90%
    19:00 +21°C° 0.8 mm 1 mps 646 mmHg 91%
    20:00 +20°C° 0.2 mm 1 mps 646 mmHg 90%
    21:00 +20°C° 0.2 mm 1 mps 647 mmHg 89%
    22:00 +20°C° 0.2 mm 1 mps 647 mmHg 88%
    23:00 +20°C° 0.2 mm 1 mps 647 mmHg 89%

    18 November, Monday

    Time Temperature Precipitation Wind Pressure Humidity
    00:00 +20°C° 0.2 mm 1 mps 647 mmHg 89%
    01:00 +20°C° 0.2 mm 1 mps 646 mmHg 90%
    02:00 +20°C° 0 mm 1 mps 646 mmHg 90%
    03:00 +19°C° 0 mm 1 mps 646 mmHg 90%
    04:00 +19°C° 0 mm 1 mps 646 mmHg 90%
    05:00 +17°C° 0 mm 0 mps 646 mmHg 89%
    06:00 +18°C° 0 mm 0 mps 647 mmHg 87%
    07:00 +18°C° 0 mm 0 mps 648 mmHg 86%
    08:00 +22°C° 0.2 mm 1 mps 648 mmHg 84%
    09:00 +23°C° 0.2 mm 1 mps 648 mmHg 82%
    10:00 +24°C° 0.2 mm 2 mps 648 mmHg 80%
    11:00 +24°C° 0.6 mm 2 mps 648 mmHg 82%
    12:00 +24°C° 0.6 mm 2 mps 647 mmHg 83%
    13:00 +24°C° 0.6 mm 1 mps 646 mmHg 85%
    14:00 +24°C° 1.1 mm 1 mps 646 mmHg 85%
    15:00 +24°C° 1.1 mm 1 mps 646 mmHg 85%
    16:00 +24°C° 1.1 mm 1 mps 645 mmHg 86%
    17:00 +23°C° 0.8 mm 1 mps 646 mmHg 88%
    18:00 +22°C° 0.8 mm 1 mps 646 mmHg 90%
    19:00 +19°C° 0.8 mm 2 mps 646 mmHg 93%
    20:00 +19°C° 0.4 mm 2 mps 646 mmHg 92%
    21:00 +19°C° 0.4 mm 2 mps 647 mmHg 91%
    22:00 +19°C° 0.4 mm 2 mps 647 mmHg 90%
    23:00 +20°C° 0.3 mm 1 mps 647 mmHg 90%

    19 November, Tuesday

    Time Temperature Precipitation Wind Pressure Humidity
    00:00 +20°C° 0.3 mm 1 mps 647 mmHg 90%
    01:00 +19°C° 0.3 mm 1 mps 647 mmHg 90%
    02:00 +19°C° 0.2 mm 1 mps 646 mmHg 90%
    03:00 +19°C° 0.2 mm 1 mps 646 mmHg 90%
    04:00 +19°C° 0.2 mm 1 mps 646 mmHg 91%
    05:00 +17°C° 0.2 mm 0 mps 647 mmHg 90%
    06:00 +18°C° 0.2 mm 0 mps 647 mmHg 89%
    07:00 +18°C° 0.2 mm 0 mps 648 mmHg 88%
    08:00 +19°C° 0.3 mm 0 mps 648 mmHg 87%
    09:00 +22°C° 0.3 mm 1 mps 649 mmHg 85%
    10:00 +24°C° 0.3 mm 1 mps 649 mmHg 83%
    11:00 +24°C° 0.7 mm 1 mps 648 mmHg 84%
    12:00 +24°C° 0.7 mm 1 mps 648 mmHg 85%
    13:00 +24°C° 0.7 mm 1 mps 647 mmHg 86%
    14:00 +24°C° 0.8 mm 1 mps 647 mmHg 86%
    15:00 +24°C° 0.8 mm 1 mps 646 mmHg 86%
    16:00 +24°C° 0.8 mm 1 mps 646 mmHg 86%
    17:00 +23°C° 1.1 mm 1 mps 646 mmHg 88%
    18:00 +21°C° 1.1 mm 1 mps 647 mmHg 90%
    19:00 +20°C° 1.1 mm 1 mps 647 mmHg 92%
    20:00 +20°C° 0.5 mm 1 mps 647 mmHg 91%
    21:00 +20°C° 0.5 mm 1 mps 648 mmHg 90%
    22:00 +19°C° 0.5 mm 2 mps 648 mmHg 90%
    23:00 +19°C° 0.3 mm 1 mps 648 mmHg 89%
    Show more